Location: Newark
(46.8000°N, 92.1000°W)
Time: 07:00:55
(UTC+00:00)

X-37B - Visible Passes

Search period start: 01 October 2020 00:00
Search period end: 11 October 2020 00:00
Orbit: 386 x 387 km, 45.0° (Epoch: 18 September)

Date Brightness Start Highest point End Pass type
(mag) Time Alt. Az. Time Alt. Az. Time Alt. Az.
03 Oct 2.5 01:18:30 10° SSW 01:20:04 18° S 01:20:04 18° S visible
04 Oct 2.8 00:21:00 10° S 00:22:35 13° SSE 00:24:09 10° ESE visible
04 Oct 3.0 01:55:39 10° SW 01:56:40 18° SW 01:56:40 18° SW visible
05 Oct 1.6 00:57:23 10° SW 01:00:13 30° SSE 01:00:52 27° SE visible
06 Oct 1.6 01:34:56 10° WSW 01:37:16 40° SW 01:37:16 40° SW visible
07 Oct 1.2 00:36:31 10° SW 00:39:33 41° SSE 00:41:19 20° ESE visible
07 Oct 3.5 02:12:51 10° W 02:13:36 16° W 02:13:36 16° W visible
08 Oct 0.6 01:14:18 10° WSW 01:17:27 62° S 01:17:36 61° SSE visible
09 Oct 0.9 00:15:49 10° WSW 00:18:55 54° S 00:21:35 13° E visible
09 Oct 2.7 01:52:16 10° W 01:53:51 26° WSW 01:53:51 26° WSW visible
10 Oct 0.7 00:53:43 10° W 00:56:52 64° S 00:57:49 39° ESE visible
